Powrót do katalogu

STARLINK-30205

AktywnyŁącznośćVLEO
NORAD 57408·PAYLOAD·🇺🇸 United States

Wystrzelony Jul 20, 2023 z Vandenberg Space Force Base

Loading…

Następne Przeloty (najbliższe 24 godziny)

TLE

ŚwieżeSource: CelesTrak SupGP

Epoka: Sep 15, 2026, 02:09 UTC

1 57408C 23102E   26258.09006944  .00032283  00000+0  10182-2 0  2586
2 57408  43.0016 258.1868 0004419 103.2564 318.8294 15.32024729    18

Śledź STARLINK-30205 w czasie rzeczywistym z AllMySat

Download on the App Store